Tracking 34403 objects as of 12-Jun-2026
HD Live streaming from Space Station
objects crossing your sky now

THORAD AGENA D DEB

Track THORAD AGENA D DEB now!
10-day predictions


NORAD ID: 4977
Int'l Code: 1970-025GX
Perigee: 1,056.0 km
Apogee: 1,084.6 km
Inclination: 100.1 °
Period: 106.5 minutes
Semi major axis: 7441 km
RCS: 0.0367 m2 (small)
Launch date: April 8, 1970
Source: United States (US)
Launch site: AIR FORCE WESTERN TEST RANGE (AFWTR)

Note: This is SATELLITE DEBRIS
Your satellite tracking list
Your tracking list is empty




NASA's NSSDC Master Catalog

Two Line Element Set (TLE):
1 04977U 70025GX  26163.21376366  .00000033  00000-0  12046-3 0  9995
2 04977 100.1486 305.5173 0019216 269.5389 213.2081 13.52464811769301
Source of the keplerian elements: AFSPC